Regional Weather Roundup
Issued by NWS

Home | Current Version | Previous Version | Graphics & Text | Print | Product List | Glossary On
Versions: 1 2 3 4 5 6 7 8 9 10 11 12 13 14 15 16 17 18 19 20 21 22 23 24 25 26 27 28 29 30 31 32 33 34 35 36 37 38 39 40 41 42 43 44 45 46 47 48 49 50
000
ASUS43 KDMX 271807
RWRIA

WEATHER ROUNDUP FOR IOWA
NATIONAL WEATHER SERVICE DES MOINES IA
100 PM CDT MON APR 27 2015

NOTE: "FAIR" INDICATES FEW OR NO CLOUDS BELOW 12,000 FEET WITH NO
SIGNIFICANT WEATHER AND/OR OBSTRUCTIONS TO VISIBILITY.

* - THESE STATIONS ARE NOT NWS STATIONS...THUS NOT UNDER NWS
QUALITY CONTROL.  THEY ALSO DO NOT REPORT WEATHER SUCH
AS PRECIPITATION OR FOG.

IAZ001>003-012>014-020>022-031>034-043>046-271900-
   NORTHWEST IOWA

CITY           SKY/WX    TMP DP  RH WIND       PRES   REMARKS
CARROLL *      SUNNY     64  27  24 N14       30.19F
CHEROKEE *     SUNNY     64  30  28 E8G17     30.20F
DENISON *      SUNNY     63  30  29 N8G20     30.18F
LE MARS *      SUNNY     64  25  22 N8G16     30.22F
ORANGE CITY *  SUNNY     64  27  24 E7        30.21F
SHELDON *      SUNNY     64  21  19 NE12G21   30.20S
SIOUX CITY     SUNNY     66  27  23 NE9       30.20F
6HR MIN TEMP:  34; 6HR MAX TEMP:  67;

SPENCER        SUNNY     65  29  25 NE15      30.21F
6HR MIN TEMP:  31; 6HR MAX TEMP:  65;

STORM LAKE *   SUNNY     63  23  22 NE14G25   30.21F
$$

IAZ055>058-069>071-079>083-090>094-271900-
   SOUTHWEST IOWA

CITY           SKY/WX    TMP DP  RH WIND       PRES   REMARKS
ATLANTIC *     SUNNY     63  32  31 NE13      30.18F
AUDUBON *      SUNNY     63  28  27 N12       30.20F
CLARINDA *     SUNNY     64  32  29 NE12G21   30.18F
COUNCIL BLFS * SUNNY     63  34  34 NE13      30.19F
CRESTON *      SUNNY     63  30  29 N12       30.18F
HARLAN  *      SUNNY     64  28  25 N10G17    30.22F
LAMONI         SUNNY     65  33  30 NE8G17    30.16F
6HR MIN TEMP:  38; 6HR MAX TEMP:  65;

RED OAK *      SUNNY     64  36  34 NE16      30.18F
SHENANDOAH *   SUNNY     64  32  29 NE17      30.17F
$$

IAZ047>049-059>061-072>074-084-271900-
   CENTRAL IOWA

CITY           SKY/WX    TMP DP  RH WIND       PRES   REMARKS
AMES           SUNNY     63  32  31 NE13      30.19F
6HR MIN TEMP:  37; 6HR MAX TEMP:  63;

ANKENY *       SUNNY     63  32  31 NE10      30.18F
CHARITON *     SUNNY     63  34  34 NE14      30.17F
DES MOINES     MOSUNNY   65  27  23 N15       30.18F
6HR MIN TEMP:  39; 6HR MAX TEMP:  65;

GRINNELL*      SUNNY     61  32  33 N7        30.19S
KNOXVILLE *    SUNNY     63  32  31 VRB7G15   30.17S
MARSHALLTOWN   SUNNY     61  33  35 E8G18     30.18F
6HR MIN TEMP:  34; 6HR MAX TEMP:  61;

PELLA *        SUNNY     63  40  42 N9        30.19F
PERRY *          N/A     64  29  27 N9G17     30.19F
$$

IAZ004>006-015-016-023>025-035-036-271900-
   NORTH CENTRAL IOWA

CITY           SKY/WX    TMP DP  RH WIND       PRES   REMARKS
ALGONA *       SUNNY     63  30  29 NE16      30.21F
CLARION *      SUNNY     63  32  31 N12       30.20F
ESTHERVILLE    SUNNY     63  30  28 NE13G20   30.21F
6HR MIN TEMP:  31; 6HR MAX TEMP:  63;

FORT DODGE *   SUNNY     63  34  34 N9        30.20F
MASON CITY     SUNNY     62  32  32 N13       30.21F
6HR MIN TEMP:  35; 6HR MAX TEMP:  62;

FOREST CITY *  SUNNY     59  32  36 N13G22    30.20F
IOWA FALLS *     N/A     61  30  31 NE14      30.20F
$$

IAZ007>011-017>019-026>030-037>042-050>054-066-271900-
   NORTHEAST IOWA

CITY           SKY/WX    TMP DP  RH WIND       PRES   REMARKS
CEDAR RAPIDS   SUNNY     59  37  44 E5        30.17F
CHARLES CITY * SUNNY     61  32  33 N12       30.20F
CLINTON *      SUNNY     59  36  41 N9        30.18F
DECORAH *      SUNNY     59  32  36 VRB7G16   30.17F
DUBUQUE        SUNNY     59  34  39 N10G20    30.16F
6HR MIN TEMP:  37; 6HR MAX TEMP:  60;

MONTICELLO *   SUNNY     61  34  36 N10       30.16F
OELWEIN *      SUNNY     59  34  38 VRB6G13   30.19F
WATERLOO       SUNNY     61  35  37 N8        30.19F
6HR MIN TEMP:  35; 6HR MAX TEMP:  62;

$$

IAZ064-065-067-068-078-271900-
   EAST CENTRAL IOWA

CITY           SKY/WX    TMP DP  RH WIND       PRES   REMARKS
DAVENPORT      SUNNY     61  36  39 N12       30.16F
6HR MIN TEMP:  37; 6HR MAX TEMP:  61;

IOWA CITY      SUNNY     60  35  39 N9G17     30.18F
6HR MIN TEMP:  39; 6HR MAX TEMP:  61;

MT. PLEASANT * SUNNY     60  34  38 N8        30.16F
MUSCATINE *    SUNNY     61  34  36 NE7G15    30.16F
QUAD CITIES    SUNNY     62  35  36 N7        30.15F
6HR MIN TEMP:  35; 6HR MAX TEMP:  62;

$$

IAZ062-063-075>077-085>089-095>099-271900-
   SOUTHEAST IOWA

CITY           SKY/WX    TMP DP  RH WIND       PRES   REMARKS
BURLINGTON     SUNNY     62  38  40 NE10      30.15F
6HR MIN TEMP:  40; 6HR MAX TEMP:  62;

FAIRFIELD *    SUNNY     61  34  36 N9G17     30.17F
FORT MADISON * SUNNY     61  36  39 NE5       30.16F
KEOKUK *       SUNNY     61  36  39 VRB7G17   30.15F
OSKALOOSA *      N/A     61  31  32 N9        30.18F
CENTERVILLE *  SUNNY     63  36  36 N15       30.17F
OTTUMWA        SUNNY     62  35  36 N12       30.17F
6HR MIN TEMP:  36; 6HR MAX TEMP:  62;

WASHINGTON *   SUNNY     61  37  41 VRB6G14   30.17F
$$

ABBREVIATIONS USED IN REMARKS
   TC - TEMPERATURES IN CELSIUS
  WCI - WIND CHILL INDEX
   HX - HEAT INDEX
  VSB - VISIBILITY
$$



USA.gov is the U.S. government's official web portal to all federal, state and local government web resources and services.